[[{"header":{"parameterUnit":"m.s-1","parameterCategory":1,"la1":30.2991,"la2":30.254,"lo1":-89.0895,"lo2":-89.0444,"dy":0.0017,"dx":0.0017,"nx":28,"ny":28,"refTime":"2024-07-22T21:00:00:Z","depth":0,"parameterNumber":2,"parameterNumberName":"U-component_of_WINDS"},"data":[0,0,0,0,0,0,0,0,0,0,0,0,0,0,0,0,0,0,0,0,0,0,0,0,0,0,0,0,0,0,0,0,0,0,0,0,0,0,0,0,0,0,0,0,0,0,0,0,0,0,0,0,0,0,0,0,0,0,1.2955,1.2955,0,1.2988,1.2989,1.2989,1.3001,1.3001,1.3001,1.3,1.3032,1.3033,1.3034,0,0,0,0,0,0,0,0,0,0,0,0,0,1.2896,1.2897,1.2955,1.2955,1.2955,1.2988,1.2989,1.2989,1.3001,1.3001,1.3001,1.3,1.3032,1.3033,1.3034,0,0,0,0,0,0,0,0,0,0,0,0,0,1.2925,1.2898,1.2955,1.2965,1.2967,1.2988,1.2989,1.2989,1.3001,1.3001,1.3001,1.3,1.3031,1.3033,1.3034,1.3047,0,0,1.3038,1.3039,0,0,0,0,0,0,0,0,1.2923,1.2927,1.2963,1.2965,1.2966,1.299,1.298,1.3008,1.3001,1.2988,1.3,1.3,1.3018,1.3021,1.3027,1.3048,1.3049,1.3039,1.3039,1.304,1.304,0,0,0,0,0,0,0,1.2921,1.2926,1.2968,1.2964,1.2966,1.2967,1.2971,1.2985,1.3003,1.2989,1.299,1.2994,1.3019,1.3026,1.3028,1.305,1.3038,1.304,1.3041,1.3041,1.3081,1.3081,0,0,0,0,0,0,1.2918,1.2924,1.2967,1.2969,1.2944,1.2968,1.2973,1.2983,1.3003,1.3006,1.2994,1.2994,1.3023,1.3026,1.3029,1.3045,1.304,1.3041,1.3042,1.3081,1.3081,1.3082,0,0,0,0,0,0,1.2917,1.2922,1.2965,1.2947,1.2952,1.297,1.2981,1.2983,1.2991,1.3007,1.301,1.2998,1.3023,1.3027,1.3042,1.3046,1.3042,1.3043,1.3081,1.3081,1.3081,1.3076,0,0,0,0,0,0,1.2915,1.2921,1.2927,1.2947,1.2953,1.2979,1.2981,1.2984,1.2993,1.2994,1.3012,1.3015,1.3024,1.304,1.3043,1.3048,1.3044,1.3081,1.3081,1.3081,1.3076,1.3076,1.3076,0,0,0,0,0,1.2913,1.2924,1.2927,1.2932,1.2961,1.2979,1.2983,1.2994,1.2994,1.2999,1.3009,1.3014,1.3045,1.3041,1.3045,1.305,1.308,1.3081,1.3081,1.3076,1.3076,1.3076,0,0,0,0,0,0,1.2903,1.2927,1.2931,1.2949,1.2962,1.2981,1.2989,1.2994,1.3007,1.3007,1.3019,1.3023,1.3036,1.3045,1.304,1.3063,1.3063,1.3064,1.3057,1.3057,1.3057,1.3055,1.3046,0,0,0,0,0,1.2903,1.2917,1.2936,1.295,1.2956,1.2971,1.2979,1.2987,1.3001,1.3006,1.3018,1.303,1.3042,1.305,1.3063,1.3077,1.308,1.3082,1.3082,1.3082,1.3083,1.309,1.3091,1.3083,1.3083,1.3083,0,0,1.2903,1.2918,1.2925,1.2948,1.296,1.2972,1.2976,1.2989,1.2999,1.3008,1.3023,1.3032,1.3046,1.306,1.3067,1.3068,1.3086,1.3083,1.3083,1.3084,1.3091,1.3091,1.3092,1.3083,1.3083,1.3083,0,0,1.291,1.2923,1.2935,1.2946,1.2963,1.2973,1.2976,1.2994,1.3001,1.3016,1.3023,1.3033,1.3055,1.3065,1.3072,1.3081,1.3086,1.3085,1.3086,1.3093,1.3093,1.3094,1.3096,1.3097,1.3086,1.3086,1.3086,0,1.2907,1.2928,1.294,1.2954,1.2963,1.2973,1.2984,1.2994,1.3014,1.302,1.302,1.3047,1.3057,1.3073,1.3076,1.3082,1.3085,1.3083,1.3092,1.3093,1.3094,1.3096,1.3097,1.3086,1.3086,1.3086,1.3086,0,1.2924,1.2938,1.2946,1.2966,1.2976,1.2988,1.3001,1.301,1.3016,1.3025,1.3039,1.3052,1.3067,1.3071,1.3077,1.3088,1.3088,1.309,1.309,1.3094,1.3097,1.3098,1.3085,1.3085,1.3085,1.3085,0,0,1.2926,1.2952,1.2955,1.2963,1.2982,1.2993,1.3005,1.302,1.3027,1.304,1.305,1.3067,1.3069,1.3078,1.3085,1.3091,1.3096,1.3092,1.3092,1.3092,1.3108,1.3107,1.3108,1.3099,1.3099,1.31,1.3107,0,1.2934,1.2958,1.2969,1.2987,1.3,1.3008,1.3019,1.3031,1.3039,1.305,1.3059,1.3071,1.3073,1.3078,1.3085,1.3094,1.31,1.3094,1.3107,1.3108,1.3104,1.3109,1.3107,1.3114,1.3108,1.3108,1.3108,0,1.2948,1.2962,1.2981,1.2998,1.3004,1.3013,1.3028,1.3038,1.3052,1.3057,1.3067,1.3073,1.3085,1.3084,1.31,1.3096,1.3102,1.3107,1.3108,1.3109,1.3108,1.311,1.3116,1.3117,1.311,1.311,1.311,0,1.2947,1.297,1.2985,1.2992,1.3012,1.3018,1.3027,1.304,1.3048,1.306,1.3066,1.3079,1.3086,1.3095,1.3104,1.3103,1.3119,1.3119,1.3123,1.3123,1.3126,1.3125,1.3132,1.313,1.313,1.313,1.313,0,1.2955,1.2967,1.2984,1.2993,1.3006,1.3018,1.3029,1.3038,1.305,1.306,1.3068,1.3076,1.3088,1.3098,1.3106,1.3117,1.312,1.3124,1.3126,1.3124,1.3123,1.3128,1.3127,1.313,1.313,1.313,1.313,0,1.2956,1.2968,1.2985,1.3003,1.3007,1.3016,1.303,1.3039,1.3048,1.306,1.3063,1.3077,1.3089,1.3099,1.3115,1.3119,1.3131,1.3133,1.3127,1.3128,1.3131,1.313,1.3141,1.3143,1.3139,1.3139,1.3139,0,1.296,1.297,1.2989,1.2996,1.3005,1.3017,1.3026,1.3037,1.3045,1.3061,1.3067,1.308,1.3091,1.3109,1.3119,1.3131,1.3134,1.3136,1.3135,1.3132,1.3133,1.3132,1.3133,1.3136,1.3136,1.3136,1.3136,0,1.2967,1.2972,1.2985,1.3,1.301,1.3021,1.3033,1.3039,1.3052,1.3061,1.3074,1.3082,1.3098,1.311,1.3123,1.3131,1.3135,1.3137,1.3138,1.3136,1.3131,1.3133,1.3127,1.3136,1.3136,1.3136,1.3136,1.3136,1.2969,1.2978,1.2992,1.3006,1.3016,1.3027,1.3035,1.3045,1.3056,1.3071,1.3077,1.309,1.3102,1.3119,1.3127,1.3136,1.3137,1.3139,1.314,1.314,1.3139,1.313,1.3139,1.3139,1.3139,1.3139,1.3139,0,1.2976,1.2986,1.2998,1.3015,1.3025,1.3029,1.3042,1.305,1.3062,1.3073,1.3084,1.3098,1.311,1.3121,1.3133,1.3138,1.3141,1.3141,1.314,1.3142,1.3138,1.3136,1.3139,1.3139,1.3139,1.3139,1.3139,1.3139,1.298,1.2995,1.3002,1.302,1.303,1.3043,1.305,1.306,1.3069,1.3085,1.3095,1.3102,1.3113,1.3126,1.3136,1.3139,1.3143,1.3143,1.3146,1.3142,1.3142,1.3142,1.314,1.3144,1.3144,1.3149,1.3149,1.3149]},{"header":{"parameterUnit":"m.s-1","parameterCategory":1,"la1":30.2991,"la2":30.254,"lo1":-89.0895,"lo2":-89.0444,"dy":0.0017,"dx":0.0017,"nx":28,"ny":28,"refTime":"2024-07-22T21:00:00:Z","depth":0,"parameterNumber":3,"parameterNumberName":"V-component_of_WINDS"},"data":[0,0,0,0,0,0,0,0,0,0,0,0,0,0,0,0,0,0,0,0,0,0,0,0,0,0,0,0,0,0,0,0,0,0,0,0,0,0,0,0,0,0,0,0,0,0,0,0,0,0,0,0,0,0,0,0,0,0,3.9363,3.9363,0,3.9343,3.9343,3.9343,3.9303,3.9302,3.9301,3.93,3.928,3.928,3.9281,0,0,0,0,0,0,0,0,0,0,0,0,0,3.9366,3.9366,3.9363,3.9363,3.9363,3.9343,3.9343,3.9343,3.9303,3.9302,3.9301,3.93,3.928,3.928,3.9281,0,0,0,0,0,0,0,0,0,0,0,0,0,3.9357,3.9366,3.9363,3.934,3.9338,3.9344,3.9343,3.9343,3.9303,3.9302,3.93,3.9299,3.928,3.928,3.9281,3.9307,0,0,3.9282,3.9282,0,0,0,0,0,0,0,0,3.9358,3.9357,3.9344,3.9342,3.9339,3.9324,3.9337,3.9331,3.9303,3.9316,3.93,3.9299,3.9296,3.9295,3.9294,3.9306,3.9305,3.9282,3.9282,3.9282,3.9282,0,0,0,0,0,0,0,3.9358,3.9358,3.9355,3.9344,3.9341,3.9331,3.9328,3.9335,3.9313,3.9315,3.9312,3.931,3.9294,3.9293,3.9293,3.9305,3.9282,3.9282,3.9282,3.9282,3.9336,3.9337,0,0,0,0,0,0,3.9362,3.9359,3.9356,3.9355,3.9346,3.9332,3.9329,3.933,3.9313,3.9309,3.9311,3.9308,3.9294,3.9293,3.9292,3.932,3.9282,3.9282,3.9282,3.9335,3.9336,3.9338,0,0,0,0,0,0,3.9363,3.9363,3.9357,3.9356,3.9354,3.9333,3.9335,3.9331,3.933,3.931,3.9306,3.9314,3.9293,3.9292,3.9303,3.9319,3.9282,3.9283,3.9333,3.9335,3.9337,3.9377,0,0,0,0,0,0,3.9363,3.9363,3.9373,3.9356,3.9355,3.9368,3.9336,3.9331,3.933,3.9326,3.9312,3.9308,3.9292,3.9303,3.9303,3.9319,3.9283,3.9332,3.9334,3.9336,3.9374,3.938,3.9385,0,0,0,0,0,3.9363,3.9385,3.9373,3.9373,3.9366,3.9369,3.9368,3.9348,3.9332,3.9341,3.9328,3.9309,3.9318,3.9304,3.9305,3.932,3.9331,3.9334,3.9336,3.9372,3.9379,3.9385,0,0,0,0,0,0,3.9404,3.9382,3.9369,3.9387,3.938,3.9362,3.9373,3.9357,3.9355,3.9351,3.9327,3.9324,3.9338,3.9331,3.9316,3.9344,3.9321,3.9324,3.9348,3.9355,3.936,3.936,3.9283,0,0,0,0,0,3.9415,3.9419,3.94,3.9417,3.9415,3.9395,3.9395,3.9381,3.9373,3.937,3.9358,3.9351,3.9352,3.9353,3.9353,3.9374,3.9369,3.9385,3.939,3.9395,3.9397,3.9405,3.9412,3.9347,3.9347,3.9347,0,0,3.9437,3.9426,3.943,3.9425,3.9418,3.9423,3.9393,3.9399,3.9402,3.9371,3.938,3.9372,3.9363,3.9378,3.9385,3.9372,3.9414,3.9398,3.9402,3.9402,3.9409,3.9415,3.9421,3.9349,3.9348,3.9348,0,0,3.948,3.9473,3.9485,3.9479,3.9469,3.9456,3.9459,3.9444,3.9437,3.9447,3.9423,3.9426,3.9429,3.9423,3.942,3.9461,3.9442,3.9462,3.949,3.9498,3.9503,3.9508,3.952,3.9526,3.9465,3.9465,3.9465,0,3.9509,3.9515,3.9494,3.9501,3.9499,3.9472,3.9484,3.9479,3.947,3.9469,3.9456,3.9458,3.945,3.9463,3.9473,3.9473,3.9474,3.9462,3.9504,3.9509,3.9512,3.9524,3.9529,3.9467,3.9467,3.9467,3.9466,0,3.955,3.9555,3.9566,3.9557,3.9557,3.9567,3.9547,3.9549,3.9535,3.9523,3.9533,3.9522,3.9519,3.9522,3.9508,3.9533,3.9525,3.9509,3.9485,3.9521,3.9532,3.9536,3.947,3.947,3.9469,3.9468,0,0,3.9616,3.9596,3.96,3.9595,3.9583,3.9586,3.9595,3.9591,3.9593,3.9588,3.9593,3.9596,3.9581,3.9578,3.9564,3.9572,3.9602,3.9554,3.9553,3.9561,3.9627,3.9638,3.9643,3.9591,3.9592,3.9592,3.9627,0,3.9654,3.9667,3.9649,3.9666,3.9669,3.9643,3.9651,3.9644,3.9633,3.9634,3.9623,3.9624,3.9605,3.9603,3.961,3.9597,3.9615,3.9595,3.9595,3.9595,3.9595,3.9649,3.9661,3.9694,3.9631,3.9632,3.9632,0,3.97,3.9696,3.9713,3.9699,3.9699,3.9706,3.9701,3.9703,3.9695,3.9686,3.9683,3.9666,3.9673,3.9652,3.966,3.9647,3.9646,3.964,3.9641,3.9638,3.9614,3.9646,3.9704,3.9708,3.9639,3.9639,3.9638,0,3.9743,3.9743,3.9753,3.975,3.9734,3.9739,3.9733,3.9723,3.9722,3.9718,3.9717,3.9715,3.9713,3.9711,3.9693,3.9679,3.9703,3.9681,3.9696,3.9696,3.97,3.9699,3.9756,3.9703,3.9703,3.9703,3.9703,0,3.9786,3.9797,3.9772,3.9778,3.9789,3.9769,3.9781,3.9772,3.9764,3.9767,3.9746,3.9749,3.9727,3.9728,3.9715,3.9723,3.9723,3.9716,3.9711,3.9716,3.9717,3.9714,3.971,3.9705,3.9704,3.9704,3.9704,0,3.9836,3.982,3.9828,3.9813,3.9809,3.9818,3.9804,3.9809,3.9797,3.9802,3.9802,3.9784,3.9784,3.9767,3.9764,3.9755,3.9768,3.9761,3.977,3.9767,3.9782,3.978,3.9837,3.9843,3.9789,3.9789,3.979,0,3.9863,3.987,3.9856,3.9856,3.9851,3.9853,3.9851,3.9832,3.9831,3.9822,3.9828,3.9826,3.9824,3.9825,3.9812,3.9809,3.98,3.982,3.9799,3.9804,3.9798,3.9797,3.9797,3.9824,3.9825,3.9825,3.9826,0,3.9912,3.9904,3.9903,3.9899,3.9898,3.9895,3.9889,3.9891,3.987,3.9871,3.987,3.9869,3.9865,3.9864,3.9859,3.9852,3.9835,3.9833,3.9836,3.9839,3.9844,3.9839,3.978,3.9831,3.983,3.983,3.983,3.983,3.9949,3.9955,3.9945,3.9944,3.9939,3.9934,3.9937,3.9926,3.9926,3.9921,3.9911,3.9912,3.9903,3.9894,3.9889,3.9889,3.9879,3.9884,3.9885,3.9886,3.9888,3.9846,3.9889,3.9889,3.9888,3.9888,3.9888,0,3.9996,3.9988,3.9988,3.9981,3.9981,3.9966,3.996,3.996,3.9962,3.9955,3.9953,3.9953,3.9951,3.9938,3.9934,3.9937,3.9929,3.9937,3.9935,3.9933,3.9898,3.9895,3.9943,3.9943,3.9943,3.9943,3.9943,3.9943,4.0019,4.0027,4.0018,4.0022,4.0015,4.0016,4.0013,4.0009,4.0003,4.0003,4.0002,3.9993,3.9984,3.9979,3.9977,3.9973,3.9972,3.9982,3.9975,3.9942,3.9936,3.9931,3.9928,3.9982,3.9982,4.001,4.001,4.0011]}]]